ELO-3 (56216 NORAD) Tracking and Keplerian Element Data

This shows tracking and keplerian element data for the satellite.

Feedback or suggestion? Click here.




ElementValue
Catalog56216
NameELO-3
Epoch Orbit2081
Epoch Day238.68332232
Epoch Year2023
RAAN132.6644
Inclination97.3935
Eccentricity0.0009426
Argument of Perigee119.7371
Mean Anonmoly240.4806
Mean Motion15.25645014
Decay Rate0.00019648
L11 56216U 23054AQ 23238.68332232 .00019648 00000+0 77294-3 0 9990
L22 56216 97.3935 132.6644 0009426 119.7371 240.4806 15.25645014 20812



Live tracking and technical data element details for ELO-3 (NORAD 56216). ELO-3 can be tracked NOW for your location showing map with azimuth and elevation plus other details from your city location.







IsCatalogInMostPopularTable: catalog: 56216, numindb: 13
Update: records affected: 1



GetName: 56216 ELO-3

Hit Count: updated at: Thu, 28 Sep 2023 05:24:19 GMT